RH
15 15 16 17 18 18 17 18 18 16 12 8 6 5 6 6 6 6 6 6 6 6 5 5 4 5 6 5 5 4 4 5 6 7 7 8 8 8 7 8 8 9 10 12 16 18 20 18 20 15 18 42 35 44 73 63 60 64 55 49 37 33 33 35 37 35 34 32 34 36 36 37 40 46 40 45 58 55 59 66 72 70 74 86 71 50 52 52
17 16 16 17 18 18 18 17 17 18 17 14 10 7 6 5 6 5 6 6 6 6 5 5 5 5 5 5 6 4 4 4 5 6 7 8 8 8 8 8 8 8 9 12 14 16 18 17 18 15 21 42 40 45 62 57 56 58 54 50 39 33 32 35 36 35 36 36 38 37 37 36 37 43 38 44 53 52 58 64 68 69 80 84 56 45 53 52
19 19 18 18 19 19 19 19 18 17 18 18 16 13 9 7 6 5 5 5 5 5 5 5 5 5 4 5 5 5 4 3 7 10 7 7 7 7 7 7 8 8 8 10 12 14 14 16 15 14 27 42 43 45 50 52 55 53 52 48 38 34 32 34 34 35 36 38 41 40 39 36 36 39 38 44 46 47 53 58 65 70 83 75 44 44 52 51
22 21 21 20 20 20 20 20 19 19 17 17 17 17 15 13 10 8 6 6 5 5 5 5 5 5 5 4 4 5 4 6 18 17 7 7 7 6 7 7 8 7 8 8 10 12 11 18 19 14 29 39 37 41 42 44 49 51 55 48 35 33 33 32 33 35 35 37 41 41 41 38 38 37 38 43 42 42 47 52 60 68 78 64 39 41 50 52
23 22 23 22 22 22 22 22 21 21 20 18 17 16 17 17 16 14 12 10 8 7 6 5 5 5 5 4 5 4 4 13 25 21 12 10 6 6 7 6 8 6 8 8 9 11 11 22 24 15 25 34 31 33 34 37 43 46 50 44 33 33 33 30 32 34 34 36 38 40 41 40 37 36 39 42 39 38 41 48 55 65 70 52 35 39 48 52
23 23 23 23 23 24 23 23 23 22 22 21 19 17 16 16 17 17 17 15 13 11 9 8 7 5 5 5 4 4 5 15 23 20 16 13 7 6 6 6 7 7 7 8 9 9 13 25 28 21 25 30 27 26 26 30 37 38 38 38 34 34 33 31 32 33 33 34 36 37 40 41 36 36 39 41 40 37 39 44 52 67 66 44 35 38 43 48
23 23 22 22 23 23 24 23 24 23 23 22 21 19 17 16 16 16 17 18 17 16 14 13 11 9 7 5 5 5 3 10 19 16 11 11 9 7 6 6 6 7 7 7 9 8 12 23 27 26 27 27 24 22 21 22 28 32 32 33 34 34 34 33 31 31 33 34 36 37 38 39 37 37 37 38 39 38 41 44 50 66 64 44 37 37 39 44
22 23 23 23 22 22 23 23 23 23 23 23 22 21 20 18 17 16 16 16 17 17 17 16 15 13 12 9 7 5 4 14 23 13 5 7 9 8 6 6 6 6 7 6 8 7 11 20 25 27 26 25 24 20 19 18 21 28 29 30 33 34 34 33 31 31 32 35 37 37 37 37 37 36 35 37 37 38 43 44 51 64 63 50 38 35 38 42
19 21 22 22 22 22 22 22 22 22 22 22 22 22 21 20 19 18 17 16 16 16 18 18 17 16 15 14 11 8 13 22 20 8 3 5 6 9 7 6 6 6 6 6 7 8 13 19 23 28 26 23 23 19 18 17 18 24 27 29 31 32 32 31 30 30 31 34 38 38 38 37 37 36 35 37 37 39 43 43 51 59 60 57 43 34 38 43
16 18 20 21 21 22 22 22 21 21 21 21 21 21 21 21 20 20 19 17 16 15 16 17 17 18 16 17 14 13 20 20 11 5 5 4 4 7 8 7 6 6 6 7 6 7 11 15 20 27 26 23 21 18 17 17 17 21 26 28 30 30 30 30 29 29 29 32 37 39 39 39 38 36 34 37 38 41 45 43 49 53 52 58 51 36 35 40
13 15 16 18 19 21 21 22 22 21 21 20 20 20 20 20 20 20 20 19 18 16 16 16 16 17 17 17 15 16 20 16 10 7 5 4 4 5 7 8 7 6 6 6 6 6 7 11 19 25 25 22 19 17 16 17 17 19 24 26 28 29 28 28 27 27 28 30 35 38 39 40 39 35 33 37 37 39 46 46 48 48 41 47 52 36 28 34
11 12 13 15 16 18 19 20 21 22 21 21 20 20 19 19 19 19 20 19 19 18 17 17 16 16 16 15 13 16 17 13 10 7 4 5 4 4 7 8 8 8 6 6 6 6 6 10 18 22 22 21 18 17 16 17 18 18 20 22 23 25 25 25 25 25 26 28 34 38 39 40 41 37 33 37 38 38 46 48 48 48 35 32 42 31 23 29
11 11 11 12 13 14 16 17 19 20 21 21 20 20 19 19 19 19 19 19 19 19 18 17 17 16 15 12 12 14 14 13 11 7 5 4 4 4 5 7 8 8 7 7 7 9 8 10 16 18 19 18 17 17 17 17 18 18 19 19 19 20 21 22 22 23 24 27 33 38 39 39 43 41 35 38 39 39 45 48 49 50 41 28 28 23 19 23
11 11 11 11 11 11 12 13 15 17 18 19 19 19 19 19 19 18 19 19 18 18 18 17 17 17 15 11 12 14 13 12 11 8 5 3 5 5 5 6 7 7 8 7 7 14 15 12 14 16 17 17 16 16 17 18 17 18 19 19 19 19 19 19 20 22 23 29 35 37 39 37 39 41 38 38 39 40 44 48 48 50 50 35 23 20 17 17
10 11 11 11 11 10 11 11 12 13 14 15 17 17 18 18 18 18 18 18 19 18 18 17 16 16 13 11 12 12 12 12 11 8 4 4 4 6 6 5 6 7 8 8 7 12 17 15 13 15 17 17 18 16 15 18 17 18 18 17 19 18 19 18 19 22 24 32 37 36 37 33 32 35 37 39 39 39 42 46 48 48 52 42 24 20 16 14
9 10 10 11 11 10 10 10 10 11 11 12 13 14 15 16 17 17 16 16 18 17 18 17 15 15 14 12 12 12 12 12 11 7 4 4 5 14 17 8 6 7 5 8 8 8 12 15 16 16 17 18 17 15 15 18 17 18 18 16 16 17 19 20 20 23 26 33 37 35 36 31 28 31 36 41 39 37 39 45 49 46 50 48 31 23 20 14
9 8 9 10 10 10 10 10 10 10 11 10 11 12 12 13 14 14 14 14 15 16 17 16 15 15 12 13 11 12 16 15 11 8 6 4 4 19 26 12 7 8 5 6 7 10 13 16 18 16 16 16 15 15 16 17 17 17 18 16 15 16 18 21 22 24 27 34 36 35 36 32 30 31 36 43 41 37 37 41 48 47 50 53 40 29 24 15
10 9 8 8 8 9 9 10 10 10 10 10 10 11 11 11 12 13 13 13 13 13 13 14 15 14 15 18 13 14 24 22 14 11 9 7 3 10 18 15 15 12 8 9 8 11 15 16 17 15 14 14 14 15 16 17 17 17 17 16 17 17 16 20 23 24 27 33 36 35 35 34 34 35 38 43 42 40 38 38 45 47 50 57 49 36 28 16
15 12 9 8 8 8 8 8 9 9 10 10 10 10 10 10 11 12 12 12 12 12 15 19 16 12 18 26 19 19 30 25 15 13 14 14 9 6 10 19 26 19 14 16 12 12 16 16 16 14 11 13 15 16 16 17 16 15 16 16 17 17 15 17 22 24 27 31 34 34 33 34 36 39 44 47 46 44 42 40 43 45 49 58 55 45 37 21
20 16 13 10 9 8 7 7 7 8 9 10 10 10 10 10 10 12 11 10 11 11 16 21 16 9 14 22 21 21 27 22 13 12 16 17 14 12 14 22 29 24 18 19 15 13 16 15 14 13 11 12 15 16 16 16 16 15 16 16 16 17 15 16 20 24 27 28 31 33 32 33 34 38 46 50 50 47 46 44 44 46 49 56 58 53 47 28
25 21 18 14 10 9 8 8 7 7 8 9 10 10 11 10 10 12 10 8 9 10 11 14 13 9 9 14 19 20 21 19 14 13 16 18 17 18 21 23 28 25 18 16 15 14 15 14 12 12 11 12 14 16 16 15 15 15 16 16 15 16 15 15 17 23 27 27 30 32 32 33 32 35 40 45 49 49 48 48 47 48 49 53 58 56 50 37
28 25 23 18 13 11 9 9 8 8 8 9 9 10 10 10 10 10 9 7 7 9 9 9 11 10 7 10 14 16 16 15 14 15 16 19 20 21 23 23 24 24 18 15 14 13 14 13 11 11 11 12 13 16 17 16 15 16 16 16 16 15 15 14 15 21 26 28 31 32 31 31 32 34 37 43 50 51 49 49 50 51 52 53 57 58 54 45
29 28 26 23 18 13 11 10 9 9 9 9 9 10 10 10 10 10 9 8 6 7 8 7 9 9 8 10 11 12 13 11 11 14 16 19 20 19 22 23 21 21 19 14 13 12 13 13 10 10 10 11 13 14 16 15 15 15 16 16 16 16 14 14 16 21 26 29 31 32 30 31 32 33 36 41 48 52 51 50 50 52 54 56 58 59 55 46
31 29 27 26 22 16 13 12 10 10 10 9 10 10 10 10 10 10 10 8 6 6 7 7 8 9 9 10 11 11 10 10 10 13 15 17 19 18 21 23 20 19 18 15 13 11 11 12 10 9 9 10 12 13 14 15 14 15 16 15 16 16 14 14 19 25 28 29 32 33 31 31 33 34 35 37 42 49 51 51 52 53 55 58 60 61 60 53
33 31 29 28 26 21 16 14 12 11 11 11 10 10 10 10 10 11 10 9 9 7 9 9 8 9 10 10 10 9 9 10 9 13 16 14 17 21 21 23 21 18 17 16 14 12 10 10 10 9 9 10 11 12 13 14 14 15 15 16 16 15 14 14 18 26 28 27 30 33 32 32 33 35 36 36 38 43 49 52 53 53 54 58 60 60 60 60
35 33 31 28 28 24 19 16 15 13 12 12 11 10 10 10 11 11 11 13 14 11 10 11 11 11 10 8 8 9 11 12 8 12 19 14 15 22 21 21 22 18 16 16 14 12 10 11 11 9 9 9 10 12 13 14 14 14 14 16 16 15 15 15 17 23 25 25 28 32 33 32 32 33 34 35 35 39 45 49 52 54 53 54 59 62 58 53
36 35 33 30 29 27 22 18 16 14 13 12 11 11 10 11 12 11 14 18 16 14 14 14 15 15 13 11 8 10 15 16 13 15 18 15 14 21 20 20 22 19 17 16 15 14 12 11 10 8 7 8 10 11 12 13 13 13 13 14 16 16 15 16 17 20 23 26 28 31 33 33 31 30 29 31 33 35 41 45 51 53 45 40 43 52 56 49
37 36 34 32 30 29 25 20 17 15 14 13 13 12 11 12 12 12 22 26 17 17 19 17 16 17 17 15 8 11 21 22 19 17 18 16 15 19 20 18 20 19 17 17 15 15 14 11 9 7 8 8 8 10 11 12 12 13 14 13 15 16 15 16 17 19 22 25 27 28 30 32 32 31 28 28 30 31 34 40 45 46 42 41 36 36 47 47
39 38 36 34 32 31 28 23 19 16 14 13 13 13 12 12 12 13 24 27 17 15 19 18 17 16 17 18 12 15 24 23 20 21 21 18 15 18 20 18 19 19 17 17 16 15 15 12 8 8 10 9 8 10 11 13 13 12 14 13 13 15 15 16 18 18 21 24 27 26 27 31 32 31 29 26 28 29 31 35 37 41 49 51 44 45 57 55
41 40 38 36 33 31 29 24 20 17 16 14 13 14 12 11 16 20 22 22 16 13 18 18 18 18 19 21 19 19 23 22 22 25 24 20 15 17 20 18 18 19 18 18 16 16 15 12 10 9 11 10 9 11 12 12 13 12 13 14 14 14 14 15 16 17 21 26 27 26 27 30 30 28 27 27 28 28 31 33 33 40 44 36 34 46 60 64
43 42 40 37 35 33 29 25 22 19 17 15 14 14 12 12 22 25 20 19 16 14 17 17 17 21 21 21 21 20 21 20 22 24 23 21 18 17 19 20 19 18 19 18 16 17 16 13 11 10 11 11 10 10 10 11 12 12 13 13 13 14 14 16 17 17 20 23 24 24 25 27 28 26 25 26 26 26 31 33 31 35 32 23 27 32 33 48
45 43 41 37 36 34 30 26 23 21 17 16 15 13 13 18 25 24 19 18 15 14 17 16 17 22 21 19 18 18 20 18 20 23 21 20 19 17 18 21 20 18 18 18 17 17 17 13 13 12 11 12 10 8 8 9 11 12 12 13 13 14 17 20 19 17 19 19 20 22 23 24 25 25 25 25 24 24 28 31 28 28 27 25 29 26 22 39
48 46 42 37 35 34 31 27 24 21 18 18 16 12 15 23 24 21 18 16 14 14 16 15 16 19 19 18 16 17 20 17 18 22 21 19 18 17 19 20 18 17 16 17 17 18 17 14 12 14 12 11 10 8 7 8 10 11 12 13 14 14 19 23 20 18 19 18 18 20 22 23 22 22 24 24 23 23 25 27 26 23 24 25 28 30 32 36
50 47 43 37 33 31 29 27 24 21 19 19 16 14 17 21 20 19 18 15 14 15 16 15 16 17 17 16 15 15 16 15 17 20 21 19 17 16 18 18 16 15 14 15 17 17 17 14 12 13 13 12 10 8 6 7 9 10 11 13 13 13 17 21 19 18 19 17 18 20 21 22 22 23 22 22 23 22 23 25 24 22 21 22 27 38 39 28
50 46 43 38 32 29 28 26 23 21 21 19 16 17 19 19 17 17 17 15 14 14 15 15 16 17 16 16 15 14 13 13 14 17 19 19 17 16 16 17 15 15 14 14 15 16 15 13 11 12 13 12 10 9 7 7 8 9 11 13 13 13 16 17 16 17 18 17 17 18 19 20 21 22 21 22 23 22 23 22 21 22 20 18 24 34 33 21
49 45 40 34 30 28 27 25 23 22 22 20 19 19 18 17 16 15 15 15 14 13 13 15 17 16 15 15 14 13 14 14 13 14 17 17 17 16 15 16 15 15 15 14 14 15 15 14 12 12 13 12 10 10 8 6 7 10 13 13 13 14 16 16 14 16 17 17 17 16 16 19 19 18 20 23 23 22 23 21 20 20 18 19 24 28 26 13
47 45 39 31 26 26 27 24 23 25 24 21 23 22 17 15 16 15 14 14 15 15 13 13 15 15 14 14 14 13 14 15 13 14 15 16 16 16 15 15 15 14 15 14 13 14 14 14 13 12 13 13 12 11 9 7 7 11 12 11 12 14 15 14 15 16 17 17 17 14 13 16 16 15 19 23 22 22 24 22 19 18 16 19 22 27 32 28
42 41 36 30 24 24 25 23 25 28 24 25 29 28 22 17 14 14 14 13 15 19 17 13 12 13 13 12 12 12 14 15 14 14 15 15 15 15 15 15 15 14 15 15 14 14 14 14 13 13 13 14 13 12 9 8 8 9 10 10 11 13 14 14 15 16 18 18 17 14 13 14 14 15 20 23 21 21 24 22 19 17 15 18 21 26 35 42
39 35 38 42 34 27 26 26 28 29 29 37 40 34 28 23 17 14 13 12 12 18 21 17 13 12 12 11 10 10 11 13 14 14 14 15 14 14 15 15 15 15 14 15 14 14 14 14 13 13 12 12 13 12 10 9 8 7 7 9 11 12 13 14 14 14 17 18 18 17 15 14 14 14 18 21 19 19 21 20 18 17 15 15 17 23 27 32
43 35 38 45 36 26 27 28 28 30 38 49 48 39 32 26 21 17 15 13 11 13 19 19 16 14 12 12 11 9 9 11 13 13 13 14 13 13 15 15 15 15 15 15 15 14 15 17 15 12 11 12 12 12 11 9 8 7 6 7 10 12 12 12 12 12 15 17 17 18 17 16 15 13 14 17 17 17 19 18 17 17 15 14 15 20 24 24
50 42 43 51 43 31 29 32 33 37 46 52 49 44 39 29 25 22 17 16 13 11 14 15 15 15 15 14 13 12 11 10 10 12 13 12 12 13 16 16 15 16 16 16 15 15 15 16 16 13 11 12 12 11 11 9 8 7 5 6 9 11 11 12 13 13 13 14 14 17 18 16 15 14 13 14 17 18 18 16 16 16 14 15 15 16 20 21
47 44 51 65 60 40 30 36 44 46 48 49 46 45 42 34 30 25 20 18 16 13 13 13 13 14 14 14 14 14 15 12 12 13 12 12 12 14 17 17 16 15 17 18 16 15 14 15 17 15 12 11 12 11 11 10 9 7 6 7 8 9 11 12 14 14 12 13 13 14 16 15 14 14 13 15 18 18 17 15 15 16 15 15 16 15 18 20
43 43 47 54 48 32 29 40 47 48 46 44 42 41 40 38 34 29 24 20 17 15 13 12 12 12 12 13 13 14 15 14 15 16 14 13 13 14 17 18 17 16 17 18 17 16 16 15 17 17 14 12 11 11 11 10 9 7 6 7 6 7 10 11 13 13 12 13 14 14 16 15 13 14 14 16 19 19 18 17 17 18 17 16 15 14 16 19
38 37 36 40 39 31 36 48 48 44 41 38 37 37 35 35 34 32 29 26 23 19 15 13 12 11 11 11 12 13 13 14 15 16 16 14 13 14 16 18 18 17 16 18 17 16 17 18 18 19 18 15 12 11 11 10 9 8 7 7 6 7 9 9 11 14 13 12 13 15 16 14 13 15 14 15 18 19 18 18 18 19 17 15 15 15 17 20
42 47 47 51 53 45 47 56 53 48 46 41 39 36 34 33 32 30 30 30 29 24 18 15 13 12 12 11 12 13 13 14 14 15 15 15 14 14 15 18 19 18 17 18 19 18 18 19 19 19 20 18 15 13 12 10 9 9 8 7 7 7 7 5 8 13 13 12 14 15 14 13 13 15 14 14 16 18 19 18 17 16 16 15 15 16 17 19
60 70 64 57 60 60 63 67 63 61 59 54 49 44 42 41 39 38 37 34 34 31 25 20 16 13 13 12 12 12 13 13 13 14 15 15 15 14 14 16 17 18 18 19 20 21 19 19 20 20 20 18 16 14 14 12 10 9 9 7 6 7 6 6 8 11 10 13 16 16 14 13 13 14 15 15 15 16 19 20 17 16 15 14 15 17 18 19
75 76 71 66 65 67 71 73 73 76 72 68 66 61 57 56 52 51 47 39 35 33 31 28 23 18 14 12 12 11 12 13 13 14 15 14 14 13 12 14 14 16 19 19 21 24 23 21 21 21 21 20 18 16 15 14 13 10 8 8 7 6 6 7 9 9 8 11 14 14 14 15 15 16 16 15 15 17 20 21 19 17 15 13 15 16 15 16
81 77 76 81 81 78 78 78 82 88 85 81 81 76 72 69 63 57 54 49 41 34 30 30 28 25 21 16 14 12 12 13 13 13 14 13 14 13 12 12 13 16 20 21 22 25 27 25 21 20 22 23 20 18 16 15 15 12 9 8 9 7 6 7 7 8 9 11 11 11 13 15 16 17 15 14 15 16 17 20 20 17 16 16 16 15 17 20
81 80 76 77 79 79 81 79 78 83 85 84 83 79 76 74 69 63 60 59 56 47 36 30 26 26 26 23 20 17 15 14 13 14 14 14 13 15 14 12 13 18 22 23 25 26 28 28 26 23 22 22 22 20 18 16 15 14 12 11 11 10 8 7 7 6 8 9 9 9 11 14 16 15 14 14 16 15 16 18 19 18 17 16 15 15 17 24
82 85 82 79 77 75 78 80 74 69 69 68 66 64 65 66 67 66 65 68 73 68 60 56 48 39 35 33 29 23 20 18 17 16 16 15 14 15 16 15 16 20 23 24 25 26 28 31 32 29 24 23 23 22 20 17 15 15 14 13 13 12 11 10 8 7 7 8 8 9 11 13 14 14 14 14 16 16 16 17 18 19 19 17 17 15 13 19
82 83 81 78 74 70 73 78 77 72 68 62 55 53 54 55 57 62 66 69 73 74 76 80 75 60 48 44 40 32 26 28 29 26 24 22 21 19 16 16 17 19 20 22 23 25 30 31 32 32 31 28 28 26 23 20 18 17 15 15 14 12 11 12 10 9 8 6 7 8 10 11 11 12 15 17 18 18 16 17 18 18 18 18 17 17 15 14
89 90 85 78 73 69 70 77 80 77 71 65 59 55 54 54 59 68 69 62 60 70 79 81 78 71 61 59 62 57 49 47 47 45 45 45 41 35 28 24 23 20 18 19 21 25 31 32 32 35 35 32 30 28 25 23 23 23 19 17 16 14 12 12 11 11 10 8 8 9 9 10 9 10 13 15 18 21 19 18 19 18 19 19 17 18 18 14
Wind_Speed
12 12 11 11 11 11 11 11 11 11 11 11 11 12 12 12 12 11 11 11 11 10 10 10 11 10 10 11 12 14 15 16 17 16 16 18 20 21 22 22 22 23 23 23 22 21 19 16 13 10 7 8 9 4 9 10 4 7 8 2 0 2 3 5 5 5 7 9 9 8 8 7 8 7 5 9 10 10 12 11 11 9 11 13 13 16 20 22
13 12 12 12 12 12 11 12 11 11 11 11 11 11 12 11 11 11 11 11 11 11 11 10 10 10 10 10 11 12 12 14 15 14 16 18 19 19 20 20 21 22 23 22 22 21 19 17 14 11 8 9 8 2 7 9 6 5 5 4 0 3 4 4 5 5 7 8 8 8 7 7 8 7 6 10 10 10 10 11 11 10 13 14 14 16 18 20
14 13 13 13 12 12 12 12 12 12 11 11 11 11 11 11 11 11 11 12 11 12 12 11 10 9 9 9 10 11 9 9 10 12 16 17 18 18 18 19 20 22 22 21 21 20 19 17 15 12 9 9 8 6 7 8 6 3 6 5 1 3 2 3 4 5 6 7 8 8 7 7 7 7 7 10 10 10 10 12 13 12 15 15 14 17 18 19
15 14 14 14 13 13 13 13 12 12 12 12 12 11 11 11 10 11 11 12 12 12 12 11 10 9 9 9 9 9 6 5 4 12 14 13 16 17 17 18 19 20 21 21 20 20 18 17 17 13 11 11 11 10 9 10 8 6 10 6 2 2 1 3 4 4 5 6 8 8 7 8 7 7 7 9 9 9 9 12 13 14 16 15 14 17 18 18
16 15 15 15 14 15 14 14 13 13 13 12 12 12 11 11 10 10 10 11 11 11 11 11 11 9 9 8 8 7 3 4 5 15 14 11 15 15 17 18 19 19 20 21 21 21 19 18 18 15 14 14 13 13 12 11 9 8 11 6 1 2 1 3 4 5 5 6 9 7 7 8 7 8 8 9 8 7 9 11 13 14 15 16 14 16 18 17
17 17 16 16 16 16 16 15 15 14 14 13 13 13 12 12 11 11 11 11 11 10 10 10 10 9 8 8 8 7 3 2 6 15 14 12 13 15 17 18 19 19 19 21 22 22 21 19 19 18 17 16 14 14 12 11 11 9 8 6 4 3 1 2 3 5 5 6 8 7 8 8 7 8 8 9 6 5 9 12 13 15 15 14 13 15 17 17
19 18 17 17 17 17 17 16 16 16 15 14 14 13 13 12 12 11 11 12 11 10 10 10 10 9 8 8 7 8 8 5 8 18 16 12 13 15 17 18 20 21 21 22 22 23 23 21 21 19 18 17 15 15 13 11 13 12 9 7 7 6 4 2 2 4 5 6 7 7 8 8 8 9 10 9 6 6 10 11 13 15 16 14 13 15 16 16
20 20 19 19 18 18 18 17 17 17 16 16 15 14 14 13 13 12 12 12 12 11 10 10 9 9 8 8 8 9 7 6 14 21 17 13 14 15 17 19 21 22 22 23 23 23 23 23 23 20 19 18 15 14 13 13 14 14 11 9 8 8 6 5 4 4 6 6 7 8 9 8 8 8 9 10 8 8 11 12 14 15 16 15 14 15 16 16
20 20 20 20 20 19 19 18 18 18 17 17 17 16 15 14 14 13 14 13 13 12 11 10 10 9 9 8 9 9 7 10 18 19 15 15 15 16 18 19 21 22 23 23 23 23 24 24 24 22 20 18 16 15 13 14 15 14 13 11 10 10 8 7 7 6 7 7 9 10 9 8 8 8 9 11 10 10 12 13 14 15 16 16 15 15 16 16
20 20 20 21 21 21 20 20 19 19 19 18 18 17 16 15 15 14 14 14 14 13 13 12 11 10 10 10 10 10 11 13 16 17 15 15 15 16 18 19 21 23 23 24 24 26 26 25 23 21 20 18 17 17 15 15 15 11 11 12 11 11 10 9 9 8 8 8 11 11 9 9 10 9 9 13 12 11 13 14 14 15 15 17 16 16 16 16
19 19 20 21 21 21 21 21 21 20 20 20 19 18 17 16 16 15 15 15 15 14 14 14 13 12 11 12 11 10 13 14 13 16 15 14 15 17 19 20 22 23 24 25 25 26 26 25 21 18 20 20 18 17 17 17 15 10 9 11 12 12 12 11 10 10 9 10 12 12 10 11 12 9 9 14 14 13 14 14 15 15 14 16 18 17 18 18
18 18 19 20 21 21 21 22 21 21 22 21 21 20 19 18 17 16 16 16 16 15 16 15 15 14 14 14 11 9 13 13 12 15 16 15 15 16 19 21 21 23 24 25 25 25 26 25 21 19 20 18 18 16 15 18 17 13 11 12 13 13 14 13 12 11 11 12 13 12 12 13 14 10 9 15 16 14 15 15 16 16 14 15 18 18 19 20
17 17 18 19 20 21 21 21 22 22 22 22 22 21 20 20 19 18 17 17 16 16 16 17 17 16 17 16 12 11 13 14 14 15 16 16 15 16 19 21 21 22 24 25 25 24 25 25 23 22 20 17 20 16 11 14 19 17 14 14 14 14 15 15 14 13 12 13 14 14 13 14 15 13 11 16 16 15 17 16 16 16 15 15 16 18 18 19
18 18 18 19 19 20 21 21 21 21 22 23 22 22 21 21 21 20 19 18 18 18 17 18 18 19 20 15 12 14 14 15 16 15 16 16 15 16 18 20 22 22 23 25 25 22 22 25 25 24 23 21 20 17 13 13 17 17 16 16 16 15 14 15 15 14 14 14 15 15 13 13 15 15 15 17 16 16 18 18 17 17 17 16 15 16 16 17
19 19 19 19 19 20 20 20 20 20 21 22 22 22 22 22 22 21 21 20 19 19 18 19 19 20 22 17 15 16 14 14 14 12 14 15 15 16 17 19 21 22 23 24 25 25 23 25 26 24 24 24 22 19 16 16 18 18 18 18 18 17 12 13 15 15 16 15 15 17 13 10 13 16 19 19 16 17 18 18 18 18 18 17 16 15 16 16
20 20 20 20 20 20 21 20 20 20 20 21 21 21 22 21 22 22 21 21 21 20 20 20 19 19 20 19 17 15 13 12 12 11 11 15 15 12 15 18 20 22 23 23 24 25 26 24 25 25 23 24 25 21 17 18 21 20 20 19 18 18 14 12 15 16 17 16 16 18 13 7 10 17 19 19 17 17 17 18 19 19 19 19 17 16 17 16
19 19 20 20 20 21 21 21 21 20 20 20 20 20 21 21 21 22 21 21 21 21 22 21 20 20 19 18 18 14 13 11 9 10 10 13 16 13 15 18 18 20 21 22 23 23 24 24 25 27 25 24 26 24 21 21 22 21 21 20 18 18 17 14 15 17 17 17 17 18 15 8 9 17 18 17 18 17 16 18 19 19 20 20 20 18 18 17
18 18 19 19 20 21 22 21 21 20 20 20 20 19 20 20 21 21 21 21 21 21 22 21 21 19 13 13 15 10 10 13 9 9 9 11 15 16 17 16 15 18 19 20 23 23 24 25 25 25 27 28 27 28 28 24 22 22 22 20 18 19 19 17 17 19 19 18 17 19 18 11 10 16 16 16 18 18 17 17 19 20 20 21 22 20 20 20
18 18 18 19 19 21 21 22 22 21 20 20 20 19 19 21 20 20 22 21 21 21 18 19 22 18 7 5 7 7 12 17 13 10 10 11 14 17 17 15 14 17 17 18 22 24 24 25 26 28 31 32 32 32 31 26 22 21 20 20 19 19 18 18 17 19 21 20 18 20 20 15 13 15 16 16 17 18 17 17 18 19 21 22 22 22 22 23
19 19 19 18 19 20 21 21 21 21 20 19 20 19 19 21 18 18 23 22 19 19 18 21 25 21 15 10 7 8 14 20 20 15 12 13 14 15 17 17 16 17 19 19 20 23 25 26 30 33 33 33 33 32 29 28 24 21 21 20 20 20 18 18 18 18 20 21 19 19 20 18 17 17 16 16 17 18 18 18 19 20 21 23 23 23 23 24
20 20 19 19 20 21 20 21 21 21 20 19 19 18 19 20 18 18 24 24 19 20 21 23 26 24 20 19 15 15 17 20 23 19 13 15 14 14 18 19 19 21 22 20 19 20 25 30 32 33 31 30 31 31 29 29 27 24 22 21 21 21 19 17 19 19 20 21 19 19 20 20 20 19 18 17 18 19 19 19 19 20 21 22 23 23 24 25
21 21 20 20 20 22 21 21 21 20 20 19 19 19 19 20 20 20 24 26 21 19 22 21 24 25 21 20 21 21 23 24 23 20 16 16 15 16 20 22 22 23 22 21 21 22 27 32 32 30 30 29 28 30 31 30 29 27 24 23 22 21 20 18 18 21 21 20 18 18 21 21 20 20 19 19 19 19 19 19 19 20 21 22 23 24 24 26
22 22 21 20 20 22 22 21 21 20 19 20 18 19 20 19 20 21 23 27 22 17 21 21 21 23 20 20 23 25 27 26 24 21 19 19 19 17 19 22 23 22 22 25 26 26 29 32 30 28 29 30 30 30 32 32 30 30 27 24 23 22 22 18 15 19 20 19 17 17 20 20 20 21 21 20 20 20 20 20 20 20 21 23 23 23 23 25
23 23 22 21 21 22 23 22 21 20 19 19 18 19 20 19 20 21 22 27 27 20 17 17 19 21 19 20 25 28 27 24 23 21 22 24 21 19 20 22 23 24 24 26 28 28 27 26 26 29 29 31 32 31 32 33 31 31 29 26 23 23 23 19 15 17 18 19 18 17 18 20 22 22 23 23 21 21 21 21 21 21 22 22 23 24 24 24
23 23 23 22 21 21 23 22 21 20 19 18 19 18 18 19 18 19 21 23 24 22 16 14 16 19 21 24 25 24 23 23 24 21 22 26 23 22 22 22 23 25 26 26 28 30 27 22 23 29 30 31 33 33 33 33 32 31 31 29 25 22 23 21 17 17 19 22 22 20 17 18 23 24 23 23 23 24 23 22 23 22 22 23 24 25 25 25
24 24 23 23 22 20 22 22 20 20 19 18 18 17 16 16 15 17 19 18 19 20 17 14 13 16 22 25 23 20 20 24 25 21 23 25 22 24 22 22 24 24 24 24 26 29 28 23 23 29 32 32 33 35 34 32 32 32 30 30 28 24 23 23 19 19 20 21 23 23 18 15 19 24 24 24 23 24 24 23 24 24 24 25 26 27 26 25
25 25 24 23 22 21 20 21 21 19 19 18 17 16 15 13 13 13 12 12 13 12 14 16 14 14 17 20 23 21 15 17 21 22 24 23 22 26 24 22 23 23 22 23 25 27 27 26 26 28 32 34 35 36 35 33 33 32 28 28 29 28 26 25 22 21 21 20 21 24 23 19 18 21 23 25 25 25 25 25 24 25 25 24 24 26 28 27
26 26 25 23 23 23 20 21 21 18 19 20 17 15 14 12 11 8 6 8 5 8 12 17 16 15 15 18 24 22 12 12 16 18 22 22 21 27 26 24 23 21 22 24 26 25 24 29 30 28 31 34 36 37 34 33 33 31 27 26 28 29 28 28 25 22 22 21 22 25 25 20 18 20 21 23 26 26 26 26 25 25 25 24 22 22 27 29
26 26 26 23 23 24 21 22 22 19 19 19 17 15 12 10 8 6 7 8 6 8 12 14 13 15 17 19 22 23 15 11 11 13 19 22 23 27 27 25 22 21 23 26 27 22 21 27 29 28 31 33 33 33 32 33 32 29 27 26 27 26 28 31 27 24 22 20 21 24 25 18 15 21 23 22 25 26 25 25 25 24 25 26 25 25 29 29
27 27 27 24 22 23 22 22 22 20 19 18 16 14 11 10 8 9 10 9 7 10 14 16 14 13 18 20 21 25 21 15 13 13 18 20 23 27 24 22 22 21 22 26 28 24 20 22 27 30 31 31 30 29 31 34 31 27 26 28 29 27 27 29 29 28 20 17 23 28 28 21 15 19 26 25 25 24 23 23 23 23 25 23 20 21 26 29
28 27 28 26 23 22 22 22 21 20 19 18 16 13 12 11 12 13 11 8 8 10 14 15 15 16 21 21 20 23 23 19 17 17 19 20 22 28 25 21 23 23 23 26 28 27 23 21 25 31 29 27 28 29 31 33 33 31 28 29 30 27 24 24 29 29 17 14 25 30 31 28 21 20 24 26 26 24 23 23 23 22 22 18 14 13 16 24
28 28 28 27 25 22 21 23 21 19 19 17 15 13 12 12 17 21 15 6 7 12 15 14 17 20 22 22 20 21 22 22 21 21 22 23 25 31 31 26 26 26 25 26 26 26 30 28 24 25 28 29 29 30 31 31 34 34 31 32 28 21 18 17 20 22 17 18 25 27 29 30 27 26 24 23 24 25 24 24 23 22 21 21 18 14 12 20
28 28 27 27 26 22 21 22 21 20 19 17 15 15 14 14 19 23 22 14 7 8 11 14 19 20 21 23 21 20 21 21 23 23 23 24 25 30 33 29 27 27 24 24 24 24 27 30 29 26 28 32 33 33 33 33 35 37 36 34 28 18 11 11 13 15 17 21 25 26 25 25 26 28 27 25 23 22 22 24 23 21 21 21 20 18 16 18
27 28 28 27 27 24 21 22 22 21 19 17 17 17 19 22 22 19 23 24 17 8 7 11 17 20 22 24 22 21 22 21 22 24 24 25 26 28 32 32 30 28 24 21 24 25 22 24 33 34 28 29 36 37 34 31 33 38 38 36 34 27 17 12 13 13 15 19 24 26 23 20 22 23 24 26 26 21 19 22 23 21 19 18 18 20 20 17
25 27 28 27 26 25 22 21 22 22 20 19 19 22 28 30 24 20 21 23 22 18 12 12 16 19 22 24 23 23 24 22 22 25 26 27 29 28 30 33 34 32 27 23 22 24 23 22 27 33 29 28 34 38 35 31 31 33 35 37 38 35 29 23 18 21 23 20 20 24 25 24 25 22 17 19 23 25 22 22 24 23 21 19 18 21 21 17
23 25 26 27 27 26 23 21 22 23 22 21 23 30 38 33 23 20 19 17 20 21 17 16 19 21 22 23 24 25 25 23 22 24 27 28 29 29 28 30 33 35 32 27 21 20 23 22 22 27 30 29 30 33 36 36 31 28 34 41 40 34 34 30 23 25 26 18 17 25 27 27 28 24 21 19 19 23 24 24 26 25 22 20 19 21 21 17
23 23 24 25 27 26 23 22 21 23 24 24 29 37 37 31 26 23 18 15 16 19 21 22 22 23 23 23 24 26 26 24 23 24 25 27 28 30 29 28 30 35 35 29 23 20 19 19 20 26 30 30 28 28 34 38 34 29 32 39 37 32 34 33 22 18 19 13 16 27 29 27 25 22 23 26 24 23 24 25 26 25 22 21 20 21 22 20
24 23 22 25 28 25 23 22 22 24 25 27 36 41 34 28 27 26 24 21 17 16 21 25 22 22 24 24 23 25 27 26 26 25 24 25 26 28 30 29 27 32 35 31 26 21 18 18 18 24 28 28 27 27 30 37 41 37 30 29 34 32 32 34 25 16 15 11 12 23 29 28 27 23 21 26 29 28 28 28 27 24 23 23 21 20 20 21
26 23 18 22 26 22 20 21 21 24 26 30 37 38 34 31 29 26 25 25 23 20 23 25 23 22 23 25 24 25 27 28 27 27 25 24 23 24 28 30 27 29 32 33 30 22 19 18 17 20 24 24 27 29 31 35 40 43 37 30 33 35 33 36 33 24 18 13 11 18 21 23 28 28 23 23 26 28 29 30 29 27 25 23 21 20 19 19
26 22 17 22 27 23 21 20 21 25 29 34 36 32 29 29 30 30 28 27 27 25 25 25 24 24 24 25 25 25 27 29 29 28 26 25 23 21 25 28 27 28 29 32 32 26 20 18 17 18 22 25 29 33 35 35 36 42 45 39 34 33 34 36 36 36 29 16 10 12 14 20 28 28 24 23 22 23 25 28 29 28 25 22 20 21 22 21
24 22 17 21 24 22 21 20 21 26 29 33 35 33 30 27 26 28 28 30 31 30 27 25 25 26 26 25 25 25 25 27 29 29 27 27 26 21 21 26 26 26 28 30 33 30 24 19 18 19 24 29 32 33 33 33 32 36 42 44 38 32 32 28 25 35 39 27 18 13 12 20 26 24 24 25 22 21 22 24 27 26 23 20 19 19 21 23
22 20 14 15 19 18 20 22 21 24 28 31 32 30 30 29 27 27 26 28 31 33 31 29 28 28 28 26 24 25 26 24 24 29 27 25 27 23 19 23 25 25 27 29 31 31 27 21 19 21 24 26 27 28 29 30 32 33 35 42 43 37 34 28 20 29 37 32 30 26 18 21 25 20 20 22 23 24 23 23 24 24 22 19 18 19 20 23
23 23 18 18 21 20 21 25 23 23 27 29 29 29 28 28 28 27 26 26 27 29 31 33 32 30 30 28 25 24 27 24 22 27 26 23 24 23 17 19 25 26 26 28 28 29 28 25 22 22 22 23 23 24 28 29 30 34 35 38 42 41 40 34 25 29 34 32 33 26 18 25 28 21 17 17 20 24 25 25 25 25 24 22 21 19 16 19
25 26 22 18 21 21 22 24 23 24 27 27 28 30 30 30 29 27 26 26 26 26 27 30 30 30 30 30 28 26 26 25 23 25 26 25 24 22 18 17 22 26 26 25 26 28 30 28 25 20 16 19 20 20 25 31 32 35 37 37 38 42 45 40 31 31 33 35 36 25 17 27 32 27 25 21 18 21 24 27 28 27 26 25 23 20 16 17
25 24 19 14 17 20 21 23 23 23 25 25 28 29 29 30 31 29 28 27 26 26 28 28 27 28 29 29 30 31 29 27 25 23 26 27 23 22 21 19 20 24 25 24 24 26 28 29 28 23 15 14 17 17 22 30 32 32 35 37 37 40 44 42 38 36 30 29 36 34 28 29 28 27 30 28 22 21 20 21 23 24 26 26 25 22 19 20
22 20 16 13 15 20 22 22 23 24 24 24 26 27 27 28 28 27 29 30 29 27 28 28 26 27 29 30 32 33 33 31 28 24 24 26 24 23 23 21 21 23 25 27 27 23 23 28 31 31 25 21 21 21 21 24 27 29 31 35 38 38 39 39 39 42 36 29 34 39 36 32 28 26 28 29 27 24 21 20 20 19 21 24 23 22 22 25
18 18 15 14 16 20 22 21 20 23 24 22 21 21 22 24 25 24 25 29 31 30 29 28 27 26 28 30 32 32 32 33 32 30 27 26 25 24 25 25 25 26 27 28 26 22 20 25 30 33 32 28 24 22 21 22 25 29 30 32 36 37 38 40 40 42 40 32 31 36 36 35 36 33 28 29 30 28 27 26 24 23 22 21 20 22 26 29
16 18 15 15 17 18 19 20 19 23 26 25 22 19 17 19 22 22 21 22 24 27 30 30 29 28 27 26 29 30 31 32 33 34 31 29 26 24 26 28 28 28 28 26 24 23 22 23 26 29 31 32 30 27 25 25 26 29 29 29 32 35 38 41 41 40 40 37 34 34 34 35 40 41 36 32 29 28 28 28 26 25 25 24 22 22 24 27
15 18 17 17 20 21 21 22 22 24 25 25 24 22 17 17 20 21 20 21 21 21 27 30 29 28 27 26 28 29 29 30 32 32 32 31 29 26 26 28 28 28 28 27 26 25 24 24 23 24 26 29 31 31 30 29 28 30 31 30 31 34 36 39 41 40 40 41 39 35 32 33 36 39 40 40 36 29 26 26 26 26 27 27 24 22 22 23
16 18 18 18 21 23 22 22 22 23 23 22 24 24 20 19 20 20 20 20 20 18 18 19 22 24 24 24 28 30 29 26 26 27 28 29 30 30 29 27 27 28 28 29 29 27 27 26 23 23 25 25 27 30 31 32 32 31 32 33 33 34 34 37 40 41 41 41 40 38 36 35 34 32 34 39 42 39 32 27 25 24 25 25 24 23 22 21
18 19 19 20 21 22 23 22 20 21 22 22 24 25 22 21 21 20 22 23 24 21 16 16 18 21 21 17 19 26 27 22 22 23 24 26 28 28 29 28 27 27 29 30 30 29 29 27 23 24 26 26 27 27 28 32 33 33 35 35 35 35 35 35 37 38 40 40 38 39 41 40 36 32 30 30 35 42 42 38 33 28 25 23 23 24 24 23
19 19 18 19 21 21 22 22 20 21 23 22 21 21 22 22 20 19 22 25 26 22 17 18 20 21 19 11 9 15 17 16 20 20 16 21 25 21 21 25 26 26 28 30 32 30 28 26 25 24 25 27 27 27 30 30 26 29 37 39 38 37 36 37 36 35 37 39 38 39 41 39 34 34 35 32 31 36 41 43 42 40 37 32 28 28 29 28
Wind_Direction
289 290 291 292 292 292 293 295 298 300 299 296 290 285 282 280 278 278 279 283 288 290 295 297 300 305 302 299 294 284 275 268 258 251 246 241 238 241 241 238 238 238 238 236 238 243 245 251 254 254 252 249 290 302 231 259 269 261 265 240 120 106 102 116 115 102 118 126 129 133 134 134 133 134 141 136 141 155 147 150 161 148 141 156 179 176 168 168
285 285 286 286 287 288 289 290 293 295 298 299 296 292 287 284 282 280 280 281 285 289 292 294 299 302 300 302 296 294 290 275 267 262 253 246 241 239 238 236 235 234 233 233 233 237 242 246 247 248 239 238 276 261 219 255 264 260 242 230 244 99 92 115 117 108 129 133 134 138 136 141 144 147 130 128 150 158 151 160 159 147 154 169 175 172 172 169
284 284 283 282 283 283 284 286 288 290 293 295 297 296 294 291 288 286 283 282 283 287 291 294 297 299 301 300 297 306 305 292 291 270 253 246 243 238 236 233 232 230 228 228 228 229 234 237 238 236 227 224 236 226 217 237 250 244 203 218 187 131 99 120 129 119 134 137 144 144 135 144 148 153 142 141 157 158 161 169 164 162 166 175 170 168 175 170
283 283 282 282 281 281 281 282 284 286 287 289 292 294 296 296 295 292 289 287 286 286 290 293 295 299 300 298 299 306 323 358 304 259 255 248 243 237 233 230 228 227 224 223 222 222 223 226 232 228 219 224 224 224 228 231 243 243 224 225 99 139 134 138 146 128 140 146 152 151 143 151 151 155 153 153 160 162 175 177 175 179 177 180 174 168 174 173
283 282 281 281 281 280 280 280 282 282 283 285 286 289 292 295 297 297 295 293 292 292 292 292 294 294 296 299 298 297 352 46 253 257 268 254 239 233 228 225 223 223 219 219 218 218 217 218 227 222 216 226 227 225 230 229 238 254 243 239 113 156 102 125 155 144 146 154 158 157 153 157 155 159 157 158 168 172 180 182 179 186 187 186 182 171 174 179
283 283 282 281 280 279 279 279 280 280 281 281 282 284 286 290 293 295 296 296 297 299 299 297 296 293 292 291 291 289 256 187 243 262 267 250 235 228 224 219 217 218 215 215 214 215 214 214 222 221 219 226 229 228 228 224 229 249 249 239 233 223 205 106 160 163 154 158 164 161 159 160 157 166 167 164 166 153 172 180 175 183 189 188 187 178 176 181
284 283 282 281 280 279 279 279 279 279 280 279 279 280 282 284 287 290 292 293 296 299 302 302 300 298 294 285 283 279 254 233 272 266 255 245 236 224 221 217 213 214 213 212 211 213 213 213 219 221 222 227 230 230 230 227 225 237 245 238 234 227 228 226 180 176 170 169 170 167 167 166 162 171 172 170 168 142 160 175 173 181 185 185 188 182 180 180
284 283 282 281 281 280 279 279 278 279 279 279 278 278 279 281 282 284 285 288 292 295 299 298 299 300 296 290 280 273 267 269 271 263 253 247 240 227 220 215 213 212 212 211 209 212 213 215 219 219 223 227 230 231 231 233 226 231 243 239 230 228 227 226 217 198 187 182 178 173 172 173 169 174 173 173 180 157 157 168 172 182 181 180 184 181 183 179
283 282 281 280 279 279 279 279 278 279 279 278 278 277 277 277 278 279 280 283 286 290 293 292 294 295 293 293 284 281 278 260 258 261 260 251 242 232 223 215 215 213 212 212 208 209 210 213 217 217 223 229 233 234 233 237 232 227 237 238 232 233 231 230 227 211 202 193 186 181 179 182 172 175 177 176 184 167 161 168 172 182 180 178 182 181 185 182
283 281 280 278 277 277 277 278 278 278 278 278 278 277 276 276 276 276 277 279 281 284 287 287 288 287 288 285 284 285 274 262 263 266 262 253 243 234 226 218 216 214 213 212 209 208 208 211 215 218 227 233 236 238 234 235 236 226 229 237 233 234 232 230 230 216 207 198 192 191 186 185 180 183 182 177 186 174 165 174 174 180 182 177 182 183 182 183
284 282 280 278 277 276 275 275 276 276 277 277 277 277 277 275 274 274 275 276 277 280 280 283 283 283 283 279 279 274 265 266 268 265 260 253 243 232 228 223 218 216 214 213 212 211 210 210 211 219 230 234 236 241 239 234 236 233 228 234 231 232 232 228 226 216 209 203 196 195 193 190 188 195 188 179 187 178 169 176 176 180 185 181 183 185 182 183
286 284 281 279 278 276 274 273 274 274 275 275 276 276 277 276 275 274 273 273 275 276 277 280 280 280 279 275 274 262 262 271 268 262 260 253 242 232 228 225 221 219 216 213 213 213 212 209 210 218 224 230 233 237 243 234 232 239 235 236 231 227 231 228 221 214 211 205 194 193 198 195 195 203 191 183 188 179 174 181 180 182 189 187 186 186 184 185
290 288 285 283 281 278 276 274 272 272 272 273 274 275 275 276 275 274 273 272 272 273 274 276 277 279 276 277 280 267 263 273 272 263 256 249 243 234 229 225 223 222 219 215 212 213 215 211 210 217 219 226 229 230 248 235 227 234 235 236 236 226 225 223 217 212 208 201 192 192 201 199 203 211 191 184 189 180 178 186 185 185 190 193 193 191 189 189
291 291 289 288 285 282 280 277 274 272 271 271 271 272 273 274 274 274 273 272 271 271 272 273 275 277 275 276 282 272 266 271 272 263 250 245 239 233 229 224 223 223 221 218 211 209 216 216 212 214 220 225 229 235 250 237 224 227 230 231 233 230 223 212 208 206 201 198 192 194 209 212 208 206 192 186 189 183 182 188 190 189 192 196 198 198 197 195
292 291 290 290 289 287 284 281 279 275 273 272 271 271 271 271 272 272 272 271 271 270 270 271 272 276 278 280 278 272 271 271 268 260 245 238 235 234 231 224 222 223 222 221 216 209 212 215 213 215 222 224 227 238 245 234 223 222 226 225 224 230 226 201 197 199 195 193 191 197 214 219 198 191 188 188 187 184 186 189 192 194 197 202 203 203 205 204
292 291 291 290 289 289 288 287 285 281 279 276 274 274 271 270 269 270 270 270 270 269 269 270 270 274 279 282 280 278 280 275 268 262 244 232 228 226 231 224 219 223 222 221 221 215 212 211 212 216 219 220 222 231 237 230 221 217 223 226 218 218 217 198 192 196 194 191 192 200 212 218 186 179 181 186 186 185 188 191 194 196 198 208 213 208 210 212
293 292 292 290 289 288 288 288 287 286 285 282 280 278 276 274 270 269 268 267 267 267 267 267 268 271 274 273 274 286 285 269 261 263 248 232 222 210 223 223 215 221 222 221 221 217 214 208 209 213 214 217 219 220 225 225 216 211 216 227 225 213 207 199 193 195 196 193 195 202 212 217 177 173 178 185 188 188 190 193 196 199 199 208 219 217 216 218
294 294 292 291 290 288 287 287 287 287 287 287 286 283 282 280 275 273 270 266 264 263 264 269 267 267 280 273 260 268 262 243 248 272 264 244 230 220 219 216 211 218 218 219 219 214 212 209 209 213 213 215 214 213 219 220 214 211 210 218 229 223 210 200 195 198 198 196 198 203 211 210 175 174 183 187 191 194 195 197 198 202 203 207 217 222 223 225
294 294 292 291 290 287 287 287 286 286 287 289 289 288 287 282 282 281 273 265 262 260 264 269 259 247 253 274 242 213 219 231 245 268 269 251 237 229 217 202 204 213 207 211 217 211 208 208 208 212 212 211 211 212 216 218 218 219 214 214 222 227 219 204 198 199 199 200 201 204 209 209 191 185 190 191 195 200 200 201 202 203 207 209 216 221 225 230
293 293 293 292 290 287 286 286 286 286 286 288 288 291 290 287 291 288 277 272 266 258 249 252 256 246 230 236 248 235 234 248 261 263 257 249 237 224 212 198 199 207 203 203 213 209 204 207 210 212 212 210 212 213 216 220 223 226 222 219 221 227 226 210 201 197 197 204 206 205 209 211 205 197 197 199 200 203 204 204 204 206 209 211 216 219 223 232
291 291 290 291 291 288 285 285 284 285 286 287 287 289 288 289 290 282 280 282 275 264 251 243 252 253 237 230 236 239 239 252 265 263 247 241 232 212 207 200 197 207 207 202 207 204 202 211 214 213 212 211 213 214 215 221 226 230 228 225 224 227 228 216 203 195 196 206 208 206 210 212 211 206 205 208 206 205 206 206 208 209 211 213 216 219 224 231
291 289 287 288 290 288 286 285 284 284 286 286 287 287 285 287 287 282 283 283 274 266 263 250 245 250 243 232 231 233 236 240 250 253 240 228 220 207 206 204 202 207 207 202 202 200 205 216 216 212 213 213 214 215 217 221 226 231 232 228 227 224 226 228 210 190 190 204 209 208 212 214 212 212 211 211 210 210 210 211 212 212 212 214 217 220 223 227
293 290 287 286 287 288 286 284 284 284 285 285 285 285 285 285 286 286 287 286 280 266 265 259 247 246 243 237 234 234 238 239 240 242 236 226 218 208 205 206 207 209 208 205 204 203 209 217 215 211 213 213 215 216 216 221 224 229 230 227 228 223 220 225 205 181 185 200 210 213 216 217 214 215 216 214 214 215 215 215 217 218 217 217 218 222 225 228
293 291 288 286 284 287 286 283 284 283 282 284 284 284 285 286 287 288 288 288 287 280 271 261 248 245 237 232 233 234 236 239 238 233 231 230 220 209 207 207 210 212 212 209 209 212 216 219 214 209 212 213 215 216 214 219 222 226 228 225 225 222 219 220 196 181 196 209 215 219 223 224 218 216 216 216 218 219 219 219 219 221 222 221 220 222 227 230
293 290 288 286 283 284 285 284 283 281 281 281 282 283 284 287 290 291 293 294 292 289 283 263 245 239 231 226 228 232 234 235 234 224 226 235 221 205 208 209 212 215 215 213 213 220 223 219 211 208 211 212 214 217 215 216 219 223 226 225 226 222 221 224 203 190 208 216 217 218 225 228 220 218 218 216 218 219 219 220 221 223 224 226 226 224 226 229
292 290 288 286 282 280 283 284 281 280 280 278 280 282 283 287 289 293 299 298 287 280 273 257 241 235 232 228 224 225 232 237 235 218 216 232 219 201 207 209 214 218 217 217 218 224 225 218 213 210 210 212 214 218 216 215 220 223 222 223 228 229 227 229 216 204 214 218 217 216 224 235 222 219 222 220 220 218 219 222 222 225 226 227 229 230 230 230
291 290 287 286 283 278 278 281 280 278 277 274 277 281 282 286 287 297 307 291 269 252 242 234 228 229 225 223 218 213 223 229 225 216 212 224 213 199 206 210 213 218 214 216 221 222 221 216 214 212 211 212 213 216 216 214 220 224 221 218 224 229 232 234 227 218 220 221 219 218 226 238 233 225 222 220 221 219 220 222 221 228 235 234 232 231 233 234
289 288 287 286 284 280 276 276 276 274 273 272 273 277 278 279 279 288 295 279 233 184 221 230 228 229 211 209 210 202 209 205 207 218 213 218 211 197 208 212 212 220 212 214 223 221 218 217 215 211 210 212 214 216 214 213 220 224 222 221 222 225 231 237 235 225 222 224 223 221 224 234 238 232 223 217 219 221 220 219 222 231 237 239 241 237 234 236
287 286 285 283 281 281 277 275 274 272 270 269 269 270 268 270 267 257 255 256 221 205 229 225 220 224 206 199 196 192 207 207 201 219 207 210 207 196 210 215 211 222 217 218 227 223 220 219 216 213 213 216 216 215 212 213 219 222 223 227 227 224 225 233 237 229 225 230 231 225 222 231 240 232 225 218 219 221 219 219 224 229 231 237 247 244 234 235
286 284 283 280 277 277 274 273 273 272 269 265 264 261 257 252 232 233 238 230 230 230 222 216 215 210 197 195 194 195 209 209 205 213 201 206 204 194 208 218 214 224 223 222 228 228 227 220 216 217 218 218 217 216 215 216 219 222 223 228 232 230 227 232 237 231 226 229 231 228 224 229 242 232 223 221 224 225 221 221 222 225 232 238 242 240 230 231
285 283 282 279 274 272 271 269 267 268 267 260 257 253 246 235 221 230 233 219 236 221 201 212 213 197 193 195 199 203 208 210 209 207 197 199 199 195 203 211 212 220 223 223 225 226 227 220 215 219 220 216 216 218 219 218 219 221 222 227 230 232 231 235 234 229 228 229 227 227 226 228 236 234 225 224 228 227 222 223 223 227 239 243 238 239 226 223
283 282 281 280 274 268 267 265 261 261 261 255 249 240 228 227 227 228 226 226 239 208 194 204 198 192 196 198 206 207 204 208 208 203 198 196 197 198 201 202 201 206 215 218 218 218 222 223 219 219 219 215 213 218 218 214 215 217 219 223 225 225 226 230 230 226 230 235 229 227 229 230 233 235 233 229 227 224 221 222 222 225 234 238 238 242 228 216
280 280 280 279 275 268 262 262 258 255 254 247 238 226 215 228 233 224 220 221 213 188 196 208 199 197 200 203 211 207 201 207 206 203 205 202 203 204 205 206 202 204 212 213 211 212 218 224 222 218 218 215 212 215 214 208 208 212 214 217 221 221 218 222 225 227 230 231 231 230 233 238 236 235 233 228 224 222 219 218 220 224 227 229 229 236 243 230
279 279 277 276 275 270 261 258 255 251 250 240 227 215 213 229 235 224 221 223 223 223 221 212 204 204 205 208 212 206 205 211 207 205 207 205 208 209 207 210 208 209 216 215 212 212 213 219 218 214 214 213 212 214 215 209 208 212 212 215 221 221 221 226 218 223 235 233 231 229 230 235 235 234 230 224 223 222 219 216 217 222 227 228 225 232 248 244
279 278 277 275 274 270 262 254 250 248 246 234 217 213 219 228 231 227 229 228 229 237 238 220 208 208 212 213 216 214 213 216 211 208 210 209 211 212 209 210 209 208 213 217 214 213 219 225 218 212 213 213 213 213 214 215 216 214 211 217 222 218 222 233 227 226 235 237 233 229 228 232 235 235 226 219 221 222 224 221 218 222 231 234 230 234 250 249
280 277 277 277 274 270 262 254 246 243 240 227 216 221 226 227 226 226 232 233 232 235 234 224 214 214 218 217 218 218 215 217 215 210 214 216 216 217 213 211 210 206 207 212 213 211 220 228 219 210 211 213 214 212 211 215 218 209 208 218 221 216 222 233 237 235 236 239 237 233 232 231 231 231 225 221 222 220 221 222 221 227 233 232 228 234 255 261
283 276 274 276 273 270 264 255 245 240 235 223 221 228 231 231 230 228 231 237 237 236 235 230 221 217 221 219 216 214 210 214 216 214 216 218 218 220 217 214 211 208 207 210 215 217 222 229 217 207 211 212 213 215 214 216 218 212 212 218 218 217 224 229 234 235 233 238 236 235 237 231 226 226 222 225 226 218 216 219 221 227 231 229 225 227 246 257
287 279 276 273 268 267 265 256 246 240 234 226 229 234 235 235 234 233 235 240 243 242 239 235 227 221 222 224 221 214 209 210 213 217 219 219 220 218 214 214 212 209 208 210 218 221 222 231 221 208 214 213 207 212 216 217 219 222 222 218 213 215 220 222 227 229 229 236 233 235 240 238 234 228 219 226 228 219 217 220 221 228 230 224 221 222 234 243
293 288 285 274 266 263 262 254 245 238 232 230 235 239 239 239 236 232 235 240 243 243 239 236 232 230 227 227 227 221 214 212 213 217 219 220 223 217 212 213 211 209 208 209 215 220 215 224 227 211 209 206 201 207 215 214 215 221 227 224 217 219 219 219 223 227 231 237 233 234 239 239 239 233 222 226 227 221 221 223 222 229 231 223 221 224 231 242
295 292 283 272 268 265 264 259 244 235 232 233 238 241 244 245 242 237 235 237 240 240 238 237 235 235 233 230 231 227 221 219 217 217 218 219 221 217 209 209 210 208 206 206 212 218 213 213 224 213 197 197 204 207 211 213 209 211 220 223 219 218 220 223 225 224 227 235 235 232 237 238 237 234 227 225 224 221 222 220 218 222 225 225 225 222 224 242
293 292 284 276 274 267 265 264 248 239 238 239 242 244 245 247 249 245 240 239 239 239 238 239 238 237 237 234 232 230 230 228 220 217 220 219 218 214 204 205 208 205 202 205 209 213 213 208 216 216 199 200 212 214 212 216 215 211 214 219 221 218 216 222 226 222 224 231 236 235 240 238 234 231 228 225 222 224 220 213 210 211 215 220 227 225 222 237
289 284 273 266 272 269 266 265 256 245 243 243 244 247 247 248 249 248 244 241 240 239 238 240 240 238 238 238 234 230 233 233 222 217 222 221 216 213 207 204 207 204 201 205 208 209 212 213 214 219 214 210 215 218 217 218 221 221 217 217 222 223 220 219 222 223 225 230 233 235 242 239 231 228 227 222 222 224 219 211 206 206 209 217 232 235 227 234
285 275 261 253 262 267 265 263 257 247 247 248 248 249 249 248 248 247 245 242 239 236 235 236 238 238 237 237 237 232 232 234 226 219 222 224 216 213 210 204 205 206 203 206 208 205 208 216 217 217 225 226 219 217 221 220 220 225 225 219 219 223 225 225 226 226 226 227 228 230 239 234 230 231 228 218 219 221 218 215 212 213 218 225 238 240 229 230
284 280 278 269 262 256 249 250 254 252 250 251 251 249 247 246 246 245 242 241 239 236 236 236 235 236 235 234 235 234 232 233 230 223 221 224 220 214 210 202 200 203 204 205 205 201 203 211 215 214 220 224 218 212 215 215 214 219 223 221 218 221 225 227 229 228 229 229 228 230 237 232 231 234 232 224 218 217 217 218 219 223 227 230 236 239 240 237
291 288 288 283 271 262 248 242 249 258 258 256 253 249 247 245 242 241 243 243 240 238 240 240 237 236 234 232 233 233 231 231 231 227 224 225 223 214 208 204 199 200 206 209 204 202 206 207 209 214 214 210 210 209 207 208 209 215 221 222 220 221 223 223 225 230 233 231 228 233 238 232 228 229 230 229 220 211 211 214 218 226 228 227 232 239 246 245
296 289 282 276 265 258 255 248 247 254 261 264 260 252 248 247 243 242 244 244 244 243 243 242 239 237 234 230 230 231 229 230 231 229 225 223 221 216 212 212 208 204 210 214 207 208 216 212 209 215 221 218 216 216 212 209 210 214 219 223 224 223 222 221 224 229 233 230 229 235 239 238 234 228 226 227 220 213 215 219 227 236 230 222 228 238 243 244
290 281 274 270 257 245 248 252 252 252 252 254 259 254 250 250 248 247 245 243 244 243 242 242 239 236 233 228 228 230 228 228 229 229 228 226 224 223 220 218 217 214 215 215 212 213 221 221 215 215 221 226 226 223 217 215 219 221 219 220 224 225 223 222 225 229 231 232 232 234 235 238 239 236 230 226 222 220 224 230 239 242 231 222 230 243 248 247
279 274 264 262 263 255 252 255 260 257 246 242 245 247 255 260 252 250 252 249 245 239 235 239 238 236 236 230 226 228 227 226 227 227 228 228 227 227 224 218 217 218 215 214 216 216 218 224 221 215 219 225 231 234 228 223 228 230 226 222 222 225 226 226 228 228 229 233 237 235 231 231 235 237 237 234 230 227 227 231 238 235 227 230 238 243 246 248
274 273 266 259 260 258 255 256 262 261 251 245 246 245 257 268 258 254 256 259 264 250 233 233 236 235 239 238 232 229 224 222 224 224 225 227 226 225 224 214 210 213 213 211 214 213 215 224 221 217 223 225 228 234 234 232 233 233 231 228 225 225 227 230 233 232 231 234 238 239 235 232 232 235 236 237 238 237 231 229 232 229 228 233 235 234 236 244
272 271 270 268 263 258 256 258 263 265 261 259 257 253 256 262 261 260 255 258 268 256 240 250 250 236 231 234 235 232 225 224 227 225 223 223 221 223 225 215 207 209 209 210 212 210 215 224 222 224 234 233 228 230 232 234 236 235 233 231 229 229 228 229 232 234 235 236 237 239 240 238 235 235 235 235 235 237 235 230 226 225 228 230 230 233 237 239
269 268 268 272 270 266 264 262 263 266 265 261 257 255 255 254 257 261 255 251 248 241 255 288 274 242 225 220 231 232 227 229 234 230 229 225 219 220 225 221 214 211 208 207 209 209 212 220 221 224 234 237 232 231 233 234 238 241 239 234 232 233 232 231 231 231 233 236 237 238 239 239 237 235 235 233 232 234 236 235 234 232 230 230 232 237 241 242
264 263 264 270 272 270 268 265 263 261 260 260 257 254 253 251 253 258 256 250 241 239 259 278 265 248 231 219 251 246 230 230 229 222 224 223 216 217 223 220 220 221 215 208 208 209 209 214 217 217 227 234 231 230 235 236 238 241 238 235 234 234 233 234 234 232 232 234 235 237 239 240 239 236 236 235 231 231 234 235 237 238 235 237 242 243 243 245